sat.trackr.live / text

‹ back to catalog

STARLINK-32209

NORAD 60590 · 2024-150H

PAYLOAD ACTIVE UNKNOWN

§ Identity

Operator
Country
US
Launch date
2024-08-20
Launch site
AFETR
Launch vehicle
Mass (kg)
RCS (m²)

Purposes: comms

External: N2YO · Heavens-Above · Gunter

§ Orbital elements

Epoch: 2026-05-25T03:55:07.997664Z

Period
93.85 min
Inclination
53.1606°
Eccentricity
0.0001382
Mean motion
15.34371321 rev/d
Perigee alt
461.8 km
Apogee alt
463.7 km
Semi-major
6,840.9 km
B*
-4.0945e-5
RAAN
310.8340°
Arg perigee
93.7142°
Mean anomaly
266.4019°
Rev number
9,976

§ Raw data

STARLINK-322091 60590U 24150H   26145.16328701 -.00001758  00000+0 -40945-4 0  99962 60590  53.1606 310.8340 0001382  93.7142 266.4019 15.34371321 99761

JSON: /api/v1/satellites/60590 · /tle

For live sub-satellite position, see the globe view (requires WebGL).

§ Visibility from observer

Set your observer location to see the next 7 days of passes ≥ 10°. The values pass through the URL so the page stays shareable.

No JS? Fill the form by hand. The geolocation button needs JavaScript.